Regional Weather Roundup
Issued by NWS

Home | Current Version | Previous Version | Text Only | Print | Product List | Glossary Off
Versions: 1 2 3 4 5 6 7 8 9 10 11 12 13 14 15 16 17 18 19 20 21 22 23 24 25 26 27 28 29 30 31 32 33 34 35 36 37 38 39 40 41 42 43 44 45 46 47 48 49 50

000
ASUS43 KMKX 190500
RWRWI

WISCONSIN REGIONAL WEATHER ROUNDUP
NATIONAL WEATHER SERVICE MILWAUKEE/SULLIVAN WI
1200 AM CDT SUN APR 19 2015

NOTE: "FAIR" INDICATES FEW OR NO CLOUDS BELOW 12,000 FEET WITH NO
SIGNIFICANT WEATHER AND/OR OBSTRUCTIONS TO VISIBILITY.

WIZ001-002-006>008-014>016-023>028-190600-
NORTHWEST WISCONSIN

CITY           SKY/WX    TMP DP  RH WIND       PRES   REMARKS
SUPERIOR ARPT  CLOUDY    38  32  79 NE9       30.02S WCI  31
ASHLAND        CLOUDY    35  33  92 CALM      30.00F
HAYWARD        CLOUDY    55  10  16 VRB6      29.96F
SIREN          CLOUDY    52  34  50 E5        29.94F
CUMBERLAND     CLOUDY    52  21  30 SE10G16   29.96F
RICE LAKE      CLOUDY    55  21  26 SE9G17    29.98S
CHETEK         CLOUDY    55  20  26 SE9G21    29.96F
LADYSMITH      CLOUDY    55   9  16 SE14      30.00F
EAU CLAIRE     LGT RAIN  53  23  31 E9        29.96R
MENOMONIE      CLOUDY    56  26  31 E10       29.96F
NEW RICHMOND   LGT RAIN  55  33  44 SE8       29.94S
OSCEOLA        LGT RAIN  55  38  53 SE12      29.95F
$$

WIZ003>005-009-010-017-018-190600-
NORTH CENTRAL WISCONSIN

CITY           SKY/WX    TMP DP  RH WIND       PRES   REMARKS
MANITOWISH WTR MOCLDY    49  13  23 SE10G17   30.03F
ARBOR VITAE    HAZE      52  11  19 SE14G21   30.04S VSB 3/4
WOODRUFF       HAZE      52  11  19 SE14G21   30.04S VSB 3/4
RHINELANDER    MOCLDY    47  14  26 E13       30.06S
EAGLE RIVER    MOCLDY    46  18  33 SE12      30.05F
LAND O LAKES   PTCLDY    45  29  53 SE7       30.07S
PHILLIPS       CLOUDY    50  15  24 SE12      30.01F
TOMAHAWK       CLOUDY    49   9  20 E7        30.04F
MEDFORD        CLOUDY    48  16  27 E10G16    30.00F
MERRILL        CLOUDY    49  16  27 E9        30.04F
$$

WIZ029-030-035-036-043>047-190600-
CENTRAL WISCONSIN

CITY           SKY/WX    TMP DP  RH WIND       PRES   REMARKS
WAUSAU         MOCLDY    49  17  28 E17G24    30.00F
MOSINEE        MOCLDY    46  18  31 E15G21    30.03F
MARSHFIELD     CLOUDY    49  21  33 E15       29.99F
STEVENS POINT  PTCLDY    46  20  34 E13G18    30.03F
WAUPACA        CLEAR     49  25  39 E7        30.06F
WAUTOMA        NOT AVBL
WISC RAPIDS    MOCLDY    49  19  30 E12G22    30.02F
CAMP DOUGLAS   NOT AVBL
$$

WIZ011>013-019>022-031-037>040-048>050-190600-
NORTHEAST WISCONSIN

CITY           SKY/WX    TMP DP  RH WIND       PRES   REMARKS
ANTIGO         PTCLDY    45  22  41 E15       30.06F
SHAWANO        CLEAR     48  29  48 E13       30.08S
OCONTO         CLEAR     46  30  52 E9        30.08S
STURGEON BAY   CLEAR     45  27  49 E9        30.11S
GREEN BAY      CLEAR     47  29  49 E9        30.07S
MANITOWOC      NOT AVBL
APPLETON       CLEAR     46  25  42 E8        30.06S
CLINTONVILLE   CLEAR     45  25  45 E6        30.06F
OSHKOSH        CLEAR     48  32  53 E8        30.03F
$$

WIZ032>034-041-042-053>061-190600-
SOUTHWEST WISCONSIN

CITY           SKY/WX    TMP DP  RH WIND       PRES   REMARKS
LA CROSSE      CLOUDY    59  26  28 S5        29.93S
SPARTA         CLOUDY    54  24  32 E12G18    29.96F
VIROQUA        CLOUDY    54  29  38 E20G25    29.92F
BOSCOBEL       CLOUDY    58  32  37 NE6       29.93F
PRAIRIE DU CHI CLOUDY    62  31  31 SE5G18    29.92R
PLATTEVILLE    MOCLDY    57  30  36 E15       29.93F
$$

WIZ056-057-062-063-064-067-068-190600-
SOUTH CENTRAL WISCONSIN

CITY           SKY/WX    TMP DP  RH WIND       PRES   REMARKS
REEDSBURG      MOCLDY    51  28  42 E9G17     29.97F
BARABOO/DELLS  MOCLDY    49  26  41 E10       29.98F
LONE ROCK      NOT AVBL
MINERAL POINT  CLOUDY    55  30  38 E14       29.94F
MADISON        MOCLDY    49  30  48 E5        29.97F
MIDDLETON      MOCLDY    52  28  39 E7        29.98F
WATERTOWN      PTCLDY    48  31  52 E12       29.99F
MONROE         MOCLDY    50  36  57 NE13G21   29.94F
JANESVILLE     PTCLDY    52  30  43 E12       29.95F
$$

WIZ051-052-058>065-066-070>072-190600-
SOUTHEAST WISCONSIN

CITY           SKY/WX    TMP DP  RH WIND       PRES   REMARKS
MILWAUKEE      PTCLDY    43  31  62 NE6       30.02F
WAUKESHA       CLEAR     43  30  61 NE5       30.03F
MILWAUKEE/TIMM CLEAR     46  27  46 E7        30.04F
RACINE         PTCLDY    43  33  68 NE7       30.02F
BURLINGTON     CLEAR     45  31  58 E9        29.99F
KENOSHA        PTCLDY    48  32  53 E10       30.00F
FOND DU LAC    PTCLDY    47  28  47 CALM      30.02F
SHEBOYGAN      CLEAR     40  31  70 CALM      30.05F
WEST BEND      CLEAR     43  28  56 CALM      30.04F
JUNEAU         PTCLDY    47  29  49 E8        30.02F
$$

LSZ147-162-190600-
LAKE SUPERIOR

STATION/POSITION TIME  TEMP    WIND        PRES    WAVE
                       AIR SEA DIR/SP/G            HT/PER
                 (UTC) (F)     (DEG/KT/KT) (MB)    (FT/S)
DEVILS ISLAND    0400   38      70/  8/ 10 1017.4F
PORT WING        0420   37      40/  4/ 25 1016.6F
SAXON HARBOR     0400   35        CALM     1015.9
$$

LMZ867-665-643>646-190600-
LAKE MICHIGAN

STATION/POSITION TIME  TEMP    WIND        PRES    WAVE
                       AIR SEA DIR/SP/G            HT/PER
                 (UTC) (F)     (DEG/KT/KT) (MB)    (FT/S)
CHAMBERS ISLAND  0400   40      30/ 11/ 14 1020.0F
NORTHPORT PIER   0400   44      70/ 16/ 19 1020.0F
SISTER BAY       0402   46     120/ 10/ 17   N/A
KEWAUNEE LAKESHO 0400   41      40/ 12/ 15 1017.9F
SHEBOYGAN LAKESH 0400   43      10/  7/  8 1019.2S
PORT WASHINGTON  0400   46     350/  3/  5 1018.6
MILWAUKEE LAKESH 0400   47      40/ 10/ 11   N/A
KENOSHA   LAKESH 0400   46      10/ 10/ 13 1016.6F
$$

TC  - TEMPERATURE IN CELSIUS
VSB - VISIBILITY IN STATUTE MILES
WCI - WIND CHILL INDEX
HX  - HEAT INDEX




USA.gov is the U.S. government's official web portal to all federal, state and local government web resources and services.